[[{"header":{"parameterUnit":"m.s-1","parameterCategory":1,"la1":30.2991,"la2":30.254,"lo1":-89.0895,"lo2":-89.0444,"dy":0.0017,"dx":0.0017,"nx":28,"ny":28,"refTime":"2025-02-08T03:00:00:Z","depth":0,"parameterNumber":2,"parameterNumberName":"U-component_of_WINDS"},"data":[0,0,0,0,0,0,0,0,0,0,0,0,0,0,0,0,0,0,0,0,0,0,0,0,0,0,0,0,0,0,0,0,0,0,0,0,0,0,0,0,0,0,0,0,0,0,0,0,0,0,0,0,0,0,0,0,0,0,-1.0808,-1.0808,0,-1.0815,-1.0815,-1.0815,-1.0798,-1.0798,-1.0797,-1.0797,-1.0806,-1.0806,-1.0807,0,0,0,0,0,0,0,0,0,0,0,0,0,-1.0784,-1.0785,-1.0808,-1.0808,-1.0809,-1.0815,-1.0815,-1.0815,-1.0798,-1.0798,-1.0797,-1.0796,-1.0805,-1.0806,-1.0807,0,0,0,0,0,0,0,0,0,0,0,0,0,-1.0793,-1.0785,-1.0808,-1.0801,-1.08,-1.0815,-1.0815,-1.0815,-1.0798,-1.0798,-1.0797,-1.0796,-1.0805,-1.0806,-1.0807,-1.083,0,0,-1.0811,-1.0811,0,0,0,0,0,0,0,0,-1.0793,-1.0794,-1.0802,-1.0801,-1.0801,-1.0805,-1.081,-1.082,-1.0799,-1.0799,-1.0797,-1.0796,-1.0806,-1.0807,-1.081,-1.0831,-1.0831,-1.0811,-1.0812,-1.0812,-1.0812,0,0,0,0,0,0,0,-1.0792,-1.0794,-1.0811,-1.0802,-1.0801,-1.0798,-1.0799,-1.0812,-1.0807,-1.0799,-1.0798,-1.0799,-1.0806,-1.0809,-1.081,-1.0831,-1.0811,-1.0812,-1.0812,-1.0813,-1.0872,-1.0873,0,0,0,0,0,0,-1.0792,-1.0793,-1.0811,-1.0811,-1.0795,-1.0799,-1.08,-1.0804,-1.0807,-1.0807,-1.0799,-1.0798,-1.0808,-1.0809,-1.0811,-1.0838,-1.0812,-1.0813,-1.0814,-1.0871,-1.0872,-1.0873,0,0,0,0,0,0,-1.0792,-1.0794,-1.0811,-1.0802,-1.0804,-1.08,-1.0806,-1.0805,-1.0808,-1.0807,-1.0807,-1.0804,-1.0807,-1.0809,-1.0826,-1.0838,-1.0814,-1.0815,-1.087,-1.0872,-1.0873,-1.0893,0,0,0,0,0,0,-1.0791,-1.0794,-1.0802,-1.0802,-1.0804,-1.0825,-1.0807,-1.0806,-1.081,-1.0808,-1.0811,-1.0811,-1.0807,-1.0824,-1.0827,-1.0839,-1.0815,-1.0869,-1.0871,-1.0872,-1.0891,-1.0895,-1.0898,0,0,0,0,0,-1.079,-1.0807,-1.0802,-1.0804,-1.0814,-1.0825,-1.0827,-1.0821,-1.0811,-1.082,-1.0819,-1.0811,-1.0837,-1.0826,-1.0829,-1.0842,-1.0868,-1.087,-1.0872,-1.089,-1.0894,-1.0898,0,0,0,0,0,0,-1.0809,-1.0807,-1.0801,-1.0819,-1.0822,-1.0822,-1.0833,-1.0826,-1.0832,-1.083,-1.0824,-1.0825,-1.0843,-1.0844,-1.0832,-1.0865,-1.0851,-1.0854,-1.0863,-1.0867,-1.0871,-1.087,-1.0816,0,0,0,0,0,-1.0815,-1.0823,-1.0822,-1.0838,-1.084,-1.0836,-1.0841,-1.0836,-1.084,-1.0841,-1.0842,-1.0846,-1.0855,-1.0861,-1.087,-1.0892,-1.0892,-1.0902,-1.0906,-1.0908,-1.0911,-1.0923,-1.0927,-1.088,-1.088,-1.088,0,0,-1.0827,-1.0828,-1.0833,-1.0841,-1.0843,-1.0853,-1.0837,-1.0848,-1.0855,-1.0843,-1.0858,-1.0859,-1.0864,-1.0883,-1.0892,-1.0885,-1.0924,-1.0911,-1.0913,-1.0914,-1.0926,-1.093,-1.0934,-1.0881,-1.0881,-1.0881,0,0,-1.0855,-1.0856,-1.087,-1.0872,-1.0875,-1.0873,-1.0876,-1.0878,-1.0878,-1.0893,-1.0884,-1.0894,-1.0909,-1.0913,-1.0917,-1.0948,-1.0941,-1.0951,-1.0969,-1.0981,-1.0985,-1.0988,-1.0999,-1.1003,-1.0954,-1.0954,-1.0954,0,-1.0871,-1.0884,-1.0878,-1.0889,-1.0893,-1.0882,-1.0896,-1.0899,-1.0906,-1.0909,-1.0901,-1.0921,-1.0924,-1.0944,-1.0952,-1.0955,-1.096,-1.095,-1.0985,-1.0988,-1.0991,-1.1001,-1.1006,-1.0955,-1.0955,-1.0955,-1.0955,0,-1.0903,-1.0913,-1.0924,-1.0929,-1.0935,-1.0948,-1.0944,-1.0951,-1.0946,-1.0945,-1.0961,-1.0964,-1.0973,-1.0978,-1.0974,-1.0998,-1.0994,-1.0985,-1.0971,-1.0997,-1.1007,-1.1011,-1.0957,-1.0956,-1.0956,-1.0956,0,0,-1.0942,-1.0945,-1.0949,-1.0951,-1.0954,-1.0962,-1.0975,-1.0984,-1.0989,-1.0995,-1.1006,-1.102,-1.1013,-1.1017,-1.1014,-1.1024,-1.1049,-1.1015,-1.1015,-1.1021,-1.1077,-1.1083,-1.1088,-1.1045,-1.1046,-1.1046,-1.1077,0,-1.097,-1.0991,-1.0986,-1.1007,-1.1017,-1.1007,-1.1018,-1.1022,-1.1022,-1.1031,-1.1031,-1.1041,-1.103,-1.1033,-1.1043,-1.1044,-1.1061,-1.1042,-1.1056,-1.1057,-1.1054,-1.1093,-1.1099,-1.1128,-1.1081,-1.1081,-1.1082,0,-1.1005,-1.101,-1.1032,-1.1035,-1.1039,-1.1049,-1.1056,-1.1065,-1.1069,-1.1069,-1.1074,-1.1069,-1.1083,-1.107,-1.1089,-1.1077,-1.1083,-1.1084,-1.1085,-1.1086,-1.107,-1.1095,-1.1137,-1.1141,-1.1088,-1.1087,-1.1087,0,-1.1031,-1.1044,-1.1059,-1.1062,-1.1065,-1.1073,-1.1075,-1.1078,-1.1084,-1.1091,-1.1095,-1.1104,-1.1109,-1.1117,-1.1115,-1.1105,-1.1136,-1.1121,-1.1136,-1.1136,-1.1142,-1.1142,-1.1185,-1.1147,-1.1146,-1.1146,-1.1146,0,-1.1062,-1.1076,-1.1071,-1.108,-1.1096,-1.1091,-1.1107,-1.1108,-1.1112,-1.1122,-1.1115,-1.1125,-1.1121,-1.1131,-1.113,-1.1147,-1.115,-1.115,-1.1149,-1.115,-1.115,-1.1154,-1.1151,-1.1148,-1.1147,-1.1147,-1.1147,0,-1.1093,-1.1091,-1.1106,-1.1108,-1.1109,-1.1121,-1.1123,-1.1132,-1.1132,-1.1145,-1.1147,-1.1147,-1.1159,-1.1158,-1.1171,-1.117,-1.1191,-1.1188,-1.1189,-1.1188,-1.1203,-1.1202,-1.125,-1.1256,-1.1214,-1.1214,-1.1214,0,-1.1113,-1.1124,-1.1126,-1.1132,-1.1135,-1.1144,-1.115,-1.1146,-1.1152,-1.1159,-1.1168,-1.1178,-1.1187,-1.1206,-1.1208,-1.1218,-1.1216,-1.1232,-1.1217,-1.1218,-1.1216,-1.1215,-1.1216,-1.1235,-1.1235,-1.1235,-1.1236,0,-1.1149,-1.1147,-1.1155,-1.1162,-1.1169,-1.1175,-1.1181,-1.1186,-1.1183,-1.1191,-1.1202,-1.1209,-1.1222,-1.1233,-1.1243,-1.1247,-1.1241,-1.1241,-1.1244,-1.1245,-1.1245,-1.1246,-1.1197,-1.1239,-1.1239,-1.1239,-1.1238,-1.1238,-1.1175,-1.1184,-1.1187,-1.1197,-1.12,-1.1206,-1.1215,-1.1215,-1.1224,-1.1234,-1.1232,-1.1245,-1.1251,-1.1264,-1.1268,-1.1279,-1.1273,-1.1279,-1.128,-1.1282,-1.1283,-1.1244,-1.1281,-1.1281,-1.1281,-1.1281,-1.1281,0,-1.121,-1.1212,-1.1221,-1.1228,-1.1236,-1.1229,-1.1235,-1.1242,-1.1254,-1.1259,-1.1267,-1.1281,-1.1292,-1.1295,-1.1306,-1.1314,-1.1312,-1.1318,-1.1317,-1.1318,-1.1288,-1.1283,-1.1319,-1.1319,-1.1319,-1.1319,-1.1319,-1.1319,-1.1229,-1.1244,-1.1243,-1.126,-1.1262,-1.1274,-1.1278,-1.1284,-1.1288,-1.1303,-1.1312,-1.1314,-1.1319,-1.133,-1.1341,-1.1341,-1.1346,-1.1352,-1.1352,-1.1324,-1.132,-1.1316,-1.1312,-1.1353,-1.1353,-1.1381,-1.1381,-1.1381]},{"header":{"parameterUnit":"m.s-1","parameterCategory":1,"la1":30.2991,"la2":30.254,"lo1":-89.0895,"lo2":-89.0444,"dy":0.0017,"dx":0.0017,"nx":28,"ny":28,"refTime":"2025-02-08T03:00:00:Z","depth":0,"parameterNumber":3,"parameterNumberName":"V-component_of_WINDS"},"data":[0,0,0,0,0,0,0,0,0,0,0,0,0,0,0,0,0,0,0,0,0,0,0,0,0,0,0,0,0,0,0,0,0,0,0,0,0,0,0,0,0,0,0,0,0,0,0,0,0,0,0,0,0,0,0,0,0,0,1.8981,1.8982,0,1.9059,1.906,1.906,1.9073,1.9072,1.9071,1.9071,1.9151,1.9153,1.9156,0,0,0,0,0,0,0,0,0,0,0,0,0,1.8844,1.8846,1.8981,1.8982,1.8983,1.9059,1.906,1.9061,1.9073,1.9072,1.9071,1.907,1.915,1.9153,1.9156,0,0,0,0,0,0,0,0,0,0,0,0,0,1.8911,1.8847,1.898,1.8998,1.9,1.9058,1.906,1.9061,1.9073,1.9072,1.9071,1.907,1.9149,1.9153,1.9157,1.9203,0,0,1.917,1.9171,0,0,0,0,0,0,0,0,1.8907,1.8916,1.8994,1.8997,1.8999,1.9055,1.9041,1.9109,1.9073,1.9045,1.9071,1.9069,1.912,1.9126,1.9143,1.9207,1.9211,1.917,1.9173,1.9174,1.9176,0,0,0,0,0,0,0,1.8902,1.8913,1.9012,1.8995,1.8999,1.9002,1.9011,1.9054,1.9087,1.9048,1.9049,1.9058,1.9121,1.9139,1.9145,1.9212,1.917,1.9174,1.9176,1.9178,1.9321,1.9322,0,0,0,0,0,0,1.8894,1.8909,1.9009,1.9014,1.895,1.9006,1.9015,1.9038,1.9087,1.9093,1.9059,1.9058,1.9132,1.914,1.9148,1.9208,1.9174,1.9178,1.9181,1.9319,1.9321,1.9322,0,0,0,0,0,0,1.8891,1.8903,1.9006,1.8962,1.8975,1.9009,1.9035,1.904,1.9058,1.9095,1.9101,1.9071,1.9132,1.9142,1.919,1.9211,1.918,1.9184,1.9318,1.932,1.9322,1.9326,0,0,0,0,0,0,1.8887,1.8902,1.892,1.8962,1.8977,1.9046,1.9036,1.9042,1.9066,1.9066,1.9108,1.9114,1.9132,1.9184,1.9194,1.9216,1.9187,1.9316,1.9319,1.9321,1.9324,1.9328,1.9331,0,0,0,0,0,1.8883,1.8917,1.892,1.8933,1.9,1.9047,1.9056,1.9076,1.9067,1.9086,1.911,1.9113,1.9206,1.9189,1.92,1.9223,1.9315,1.9318,1.9321,1.9323,1.9327,1.9331,0,0,0,0,0,0,1.8876,1.8923,1.8927,1.8976,1.9008,1.9049,1.9073,1.9079,1.9114,1.9112,1.9135,1.9145,1.9192,1.9212,1.9192,1.9272,1.926,1.9265,1.9257,1.9262,1.9265,1.926,1.9191,0,0,0,0,0,1.8881,1.8915,1.8954,1.8994,1.901,1.9039,1.906,1.9072,1.9106,1.9119,1.9147,1.9179,1.9216,1.924,1.9276,1.9327,1.9337,1.9349,1.9352,1.9355,1.9359,1.939,1.9396,1.9332,1.9332,1.9332,0,0,1.889,1.892,1.894,1.8994,1.9019,1.9055,1.905,1.9087,1.9115,1.9125,1.9173,1.9194,1.9232,1.9282,1.9306,1.9301,1.9379,1.9358,1.936,1.9364,1.9394,1.94,1.9405,1.9334,1.9333,1.9333,0,0,1.8926,1.8951,1.8988,1.9015,1.9054,1.9073,1.9082,1.9123,1.9138,1.9186,1.9195,1.9228,1.929,1.9318,1.934,1.9388,1.9393,1.9399,1.9417,1.9447,1.9452,1.9457,1.9476,1.9482,1.9403,1.9403,1.9403,0,1.8933,1.8987,1.9006,1.9045,1.9069,1.908,1.9118,1.9143,1.9192,1.9209,1.9202,1.9282,1.9308,1.9367,1.9379,1.9395,1.9407,1.9395,1.9449,1.9454,1.9459,1.9478,1.9484,1.9404,1.9404,1.9404,1.9404,0,1.8995,1.9032,1.9057,1.9105,1.9132,1.917,1.9196,1.9221,1.9231,1.9251,1.9301,1.9333,1.9377,1.9391,1.9401,1.9452,1.9447,1.9445,1.9433,1.9465,1.9483,1.949,1.9405,1.9404,1.9404,1.9404,0,0,1.9029,1.9088,1.9097,1.912,1.9165,1.9194,1.9233,1.9276,1.9298,1.9332,1.9366,1.942,1.9418,1.9443,1.9456,1.9482,1.9521,1.9477,1.9478,1.9486,1.9581,1.9584,1.9592,1.9524,1.9526,1.9527,1.9579,0,1.9072,1.9142,1.9161,1.9221,1.9257,1.9269,1.9303,1.9335,1.9355,1.9389,1.9412,1.945,1.9444,1.946,1.9486,1.9511,1.9541,1.9507,1.9558,1.956,1.955,1.9601,1.9604,1.9651,1.9585,1.9587,1.9587,0,1.9131,1.9166,1.923,1.9272,1.9288,1.9318,1.936,1.9392,1.9429,1.9442,1.9471,1.9482,1.9525,1.951,1.957,1.9547,1.9569,1.9584,1.9587,1.9593,1.9577,1.9611,1.9666,1.9674,1.9598,1.9597,1.9597,0,1.9152,1.9216,1.9262,1.9281,1.9331,1.9353,1.9374,1.941,1.9435,1.9472,1.9489,1.9529,1.9552,1.9584,1.9607,1.9593,1.9665,1.9652,1.9679,1.9678,1.9694,1.9693,1.9756,1.9706,1.9705,1.9705,1.9705,0,1.9198,1.9237,1.9273,1.9302,1.9346,1.9369,1.9412,1.9434,1.9467,1.9501,1.9513,1.9545,1.9572,1.9608,1.9626,1.9674,1.9683,1.9696,1.9701,1.9696,1.9695,1.9712,1.971,1.9707,1.9707,1.9706,1.9706,0,1.923,1.9255,1.9307,1.935,1.9362,1.9393,1.9431,1.946,1.9481,1.9524,1.9536,1.9569,1.9612,1.9637,1.9691,1.9704,1.9758,1.976,1.9745,1.9748,1.9774,1.9772,1.9851,1.9863,1.9803,1.9804,1.9804,0,1.9259,1.9289,1.9336,1.936,1.9382,1.942,1.9447,1.947,1.9497,1.9542,1.9566,1.961,1.9647,1.9715,1.9744,1.9787,1.9791,1.9816,1.9797,1.9793,1.9794,1.9793,1.9797,1.9819,1.982,1.982,1.9821,0,1.9308,1.932,1.9357,1.9399,1.943,1.9464,1.9497,1.9516,1.9546,1.9575,1.962,1.9648,1.9704,1.9749,1.9793,1.9817,1.9824,1.9826,1.9835,1.9831,1.9823,1.983,1.9756,1.9824,1.9824,1.9824,1.9824,1.9823,1.9341,1.9369,1.9407,1.9449,1.9477,1.9509,1.9539,1.9564,1.9601,1.9649,1.966,1.9708,1.9746,1.9807,1.9831,1.9869,1.9865,1.9877,1.9881,1.9884,1.9886,1.9815,1.9877,1.9877,1.9877,1.9877,1.9877,0,1.9393,1.9418,1.9456,1.9503,1.9536,1.954,1.9578,1.9606,1.9648,1.9682,1.9718,1.977,1.9814,1.9847,1.9891,1.9915,1.992,1.9927,1.9926,1.9932,1.9886,1.9875,1.9922,1.9922,1.9922,1.9922,1.9922,1.9922,1.9424,1.9473,1.9489,1.9552,1.9577,1.9624,1.9646,1.9676,1.9704,1.9762,1.9798,1.9819,1.9854,1.9901,1.9941,1.995,1.9967,1.9973,1.9982,1.9939,1.9934,1.993,1.992,1.9976,1.9976,2.0026,2.0026,2.0026]}]]